Retour au catalogue

DELTA 1 R/B(2)

ActifHEO
NORAD 17563·ROCKET BODY·🇺🇸 United States

Lancé Feb 26, 1987 depuis Cape Canaveral Space Force Station

Loading…

Prochains Passages (prochaines 24 heures)

TLE

FraisSource: Space-Track

Époque: Sep 14, 2026, 07:27 UTC

1 17563U 87022C   26257.31064346  .00002878  00000-0  11439-2 0  9995
2 17563  17.9539 330.1486 5990700  16.7137 356.6365  4.01854029403260

Suivez DELTA 1 R/B(2) en temps réel avec AllMySat

Download on the App Store